This is the latest recevied weather packets stored in our database for station/object W8CWV-13. If no packets are shown the sender has not sent any weather packets the latest 10 day(s).
| Time | Temp. | Humidity | Pressure | Rain* | Wind** | Luminosity | Snow |
|---|---|---|---|---|---|---|---|
| 1787843868 | 32.78° C | 100% | 1024.7 hPa | - | - | - | - |
| 1787843296 | 32.22° C | 100% | 1024.7 hPa | - | - | - | - |
| 1787842725 | 32.22° C | 100% | 1024.5 hPa | - | - | - | - |
| 1787842152 | 32.22° C | 100% | 1024.4 hPa | - | - | - | - |
| 1787841571 | 30.56° C | 100% | 1024.6 hPa | - | - | - | - |
| 1787841000 | 31.11° C | 100% | 1024.7 hPa | - | - | - | - |
| 1787840425 | 31.11° C | 100% | 1025.5 hPa | - | - | - | - |
| 1787839848 | 31.11° C | 100% | 1025.6 hPa | - | - | - | - |
| 1787839272 | 30.56° C | 100% | 1025.4 hPa | - | - | - | - |
| 1787838698 | 28.89° C | 100% | 1025.2 hPa | - | - | - | - |
| 1787838118 | 27.78° C | 100% | 1025.1 hPa | - | - | - | - |
| 1787837551 | 28.33° C | 100% | 1025.8 hPa | - | - | - | - |
| 1787836972 | 29.44° C | 100% | 1025.5 hPa | - | - | - | - |
| 1787836397 | 28.33° C | 100% | 1025.2 hPa | - | - | - | - |
| 1787835822 | 27.22° C | 100% | 1024.8 hPa | - | - | - | - |
| 1787835248 | 27.78° C | 100% | 1024.7 hPa | - | - | - | - |
| 1787834669 | 26.67° C | 100% | 1024 hPa | - | - | - | - |
| 1787834091 | 26.11° C | 100% | 1025.6 hPa | - | - | - | - |
| 1787833523 | 24.44° C | 100% | 1024.2 hPa | - | - | - | - |
| 1787832944 | 23.89° C | 100% | 1014.3 hPa | - | - | - | - |
| 1787832364 | 22.78° C | 100% | 1012.2 hPa | - | - | - | - |
| 1787831789 | 21.11° C | 100% | 1015.3 hPa | - | - | - | - |
| 1787831213 | 19.44° C | 100% | 1015.4 hPa | - | - | - | - |
| 1787830067 | 18.33° C | 100% | 1014.4 hPa | - | - | - | - |
| 1787829494 | 18.33° C | 100% | 1014.6 hPa | - | - | - | - |
* Rain since midnight (hover to see other rain measurements)
** Current wind speed in m/s (hover to see current wind gust speed)